sat.trackr.live / text

‹ back to catalog

STARLINK-33646

NORAD 63280 · 2025-053R

PAYLOAD ACTIVE UNKNOWN

§ Identity

Operator
Country
US
Launch date
2025-03-15
Launch site
AFETR
Launch vehicle
Mass (kg)
RCS (m²)

Purposes: comms

External: N2YO · Heavens-Above · Gunter

§ Orbital elements

Epoch: 2026-09-20T22:02:16.985760Z

Period
94.27 min
Inclination
42.9964°
Eccentricity
0.0000246
Mean motion
15.27588513 rev/d
Perigee alt
482.9 km
Apogee alt
483.2 km
Semi-major
6,861.2 km
B*
4.1054e-4
RAAN
219.0102°
Arg perigee
304.7813°
Mean anomaly
55.3015°
Rev number
8,605

§ Raw data

STARLINK-336461 63280U 25053R   26263.91825215  .00011055  00000+0  41054-3 0  99942 63280  42.9964 219.0102 0000246 304.7813  55.3015 15.27588513 86051

JSON: /api/v1/satellites/63280 · /tle

For live sub-satellite position, see the globe view (requires WebGL).

§ Visibility from observer

Set your observer location to see the next 7 days of passes ≥ 10°. The values pass through the URL so the page stays shareable.

No JS? Fill the form by hand. The geolocation button needs JavaScript.